SO-67 - Orbit

View from above orbital plane
View from above orbital plane
View from above satellite
View from above satellite

Ground track
Ground track

The orbit data is extracted from the following two-line orbital elements,

1 35870U 09049F   13169.35527074  .00003444  00000-0  13187-3 0  1639
2 35870 097.1914 198.0612 0001712 021.5525 099.2259 15.27187931208431
Epoch (UTC): 18 June 2013 08:31:35
Eccentricity: 0.0001712
inclination: 97.1914°
perigee height: 483 km
apogee height: 485 km
right ascension of ascending node: 198.0612°
argument of perigee: 21.5525°
revolutions per day: 15.27187931
mean anomaly at epoch: 99.2259°
orbit number at epoch: 20843

The dashed part of the orbit path shows where the satellite is in the earth's shadow,  

Developed and maintained by Chris Peat, Heavens-Above GmbH. Please read the updated FAQ before sending e-mail. Imprint. DLR